Regional Weather Roundup
Issued by NWS

Home | Current Version | Previous Version | Text Only | Print | Product List | Glossary On
Versions: 1 2 3 4 5 6 7 8 9 10 11 12 13 14 15 16 17 18 19 20 21 22 23 24 25 26 27 28 29 30 31 32 33 34 35 36 37 38 39 40 41 42 43 44 45 46 47 48 49 50
000
ASUS43 KDTX 201810
RWRMI
MICHIGAN HOURLY REGIONAL WEATHER ROUNDUP
NATIONAL WEATHER SERVICE DETROIT/PONTIAC MI
200 PM EDT WED AUG 20 2014

NOTE: "FAIR" INDICATES FEW OR NO CLOUDS BELOW 12,000 FEET WITH NO
SIGNIFICANT WEATHER AND/OR OBSTRUCTION TO VISIBILITY.

MIZ047>049-052>055-059>063-066>070-074>076-081>083-201900-
SOUTHEAST LOWER MICHIGAN

CITY           SKY/WX    TMP DP  RH WIND       PRES   REMARKS
ADRIAN         PTSUNNY   83  63  50 W10       29.90R
6HR MIN TEMP:  65; 6HR MAX TEMP:  83;

ALMA           PTSUNNY   77  65  65 W8        29.87R
ANN ARBOR      PTSUNNY   82  64  54 W12       29.88S
BAD AXE        CLOUDY    78  69  73 W10       29.85S
6HR MIN TEMP:  66; 6HR MAX TEMP:  79;

CARO           MOSUNNY   77  68  72 SW7       29.86S
DETROIT CITY   PTSUNNY   81  64  56 W13G20    29.86S
6HR MIN TEMP:  71; 6HR MAX TEMP:  82;

DETROIT        MOSUNNY   81  67  62 SW10      29.88R
6HR MIN TEMP:  67; 6HR MAX TEMP:  81;

FLINT          PTSUNNY   81  65  58 NW10      29.87S
6HR MIN TEMP:  68; 6HR MAX TEMP:  82;

GROSSE ILE     MOSUNNY   79  70  73 W5        29.87S
HILLSDALE      MOSUNNY   81  64  57 W10       29.93R
6HR MIN TEMP:  67; 6HR MAX TEMP:  82;

HOWELL         MOSUNNY   77  64  63 W7        29.88S

CITY           SKY/WX    TMP DP  RH WIND       PRES   REMARKS
JACKSON        CLOUDY    77  63  61 W8        29.90R
6HR MIN TEMP:  67; 6HR MAX TEMP:  80;

LAMBERTVILLE   CLOUDY    81  64  57 W8        29.90R
LANSING        PTSUNNY   78  64  61 W14       29.89R
6HR MIN TEMP:  66; 6HR MAX TEMP:  80;

LAPEER         FAIR      73  67  81 W3        29.87R
MASON          PTSUNNY   78  64  60 W9        29.89R
MONROE         MOSUNNY   81  66  61 W7        29.87S
MT. CLEMENS    PTSUNNY   79  66  65 SW8       29.85S
6HR MIN TEMP:  68; 6HR MAX TEMP:  80; 6HR PCP: TRACE;

PONTIAC        PTSUNNY   79  64  60 W13       29.87S
6HR MIN TEMP:  66; 6HR MAX TEMP:  79;

PORT HOPE        N/A     71  65  81 E6        29.84R
6HR MIN TEMP:  67; 6HR MAX TEMP:  75;

PORT HURON     PTSUNNY   75  70  83 SW7       29.86R
TRI CITIES     MOSUNNY   80  65  59 W12       29.86S
6HR MIN TEMP:  68; 6HR MAX TEMP:  80;

TROY           MOSUNNY   82  63  52 SW10G16   29.88S
SAGINAW HB     MOSUNNY   79  63  57 SW8       29.85S
$$
MIZ043>046-050>051-056>058-064>065-071>073-077>080-201900-
SOUTHWEST LOWER MICHIGAN

CITY           SKY/WX    TMP DP  RH WIND       PRES   REMARKS
BATTLE CREEK   PTSUNNY   79  64  60 W12       29.92R
6HR MIN TEMP:  66; 6HR MAX TEMP:  80;

BENTON HARBOR  PTSUNNY   79  64  60 W12       29.93R
6HR MIN TEMP:  67; 6HR MAX TEMP:  79;

BIG RAPIDS     CLOUDY    76  65  70 W7        29.88R
6HR MIN TEMP:  66; 6HR MAX TEMP:  76;

COLDWATER      PTSUNNY   82  65  57 W10       29.92R
6HR MIN TEMP:  66; 6HR MAX TEMP:  83;

FREMONT        CLOUDY    77  61  56 W9        29.88R
6HR MIN TEMP:  62; 6HR MAX TEMP:  79;

HOLLAND        SUNNY     78  66  66 W9        29.91R
6HR MIN TEMP:  66; 6HR MAX TEMP:  78;

GRAND RAPIDS   MOSUNNY   78  65  63 W14       29.90R
6HR MIN TEMP:  67; 6HR MAX TEMP:  81;

IONIA          MOCLDY    80  63  55 W12       29.88R
KALAMAZOO      CLOUDY    81  62  52 W14G21    29.92R
6HR MIN TEMP:  67; 6HR MAX TEMP:  82;

LUDINGTON      CLOUDY    69  64  82 W7        29.90S
6HR MIN TEMP:  61; 6HR MAX TEMP:  72;

MARSHALL       PTSUNNY   81  64  57 MISG      29.91R
MOUNT PLEASANT LGT RAIN  73  67  81 W5        29.86S
6HR MIN TEMP:  67; 6HR MAX TEMP:  77; 6HR PCP:  0.11;

MUSKEGON       MOSUNNY   75  64  68 W9        29.90R
6HR MIN TEMP:  66; 6HR MAX TEMP:  75;

SOUTH HAVEN    SUNNY     77  67  71 W10       29.93R
$$
MIZ016>042-201900-
NORTHERN LOWER MICHIGAN

CITY           SKY/WX    TMP DP  RH WIND       PRES   REMARKS
ALPENA         CLOUDY    76  63  64 W6        29.84R
6HR MIN TEMP:  66; 6HR MAX TEMP:  76;

BEAVER ISLAND  CLOUDY    65  62  91 NW5       29.86S
BELLAIRE       CLOUDY    68  61  77 W6        29.87R
6HR MIN TEMP:  65; 6HR MAX TEMP:  69;

CADILLAC       PTSUNNY   73  64  73 W8        29.88S
CHARLEVOIX     CLOUDY    66  64  94 W13       29.89S
6HR MIN TEMP:  64; 6HR MAX TEMP:  66;

FRANKFORT      CLOUDY    67  61  81 SW7       29.89R
GAYLORD        CLOUDY    67  59  75 W7        29.88R
6HR MIN TEMP:  64; 6HR MAX TEMP:  68; 6HR PCP: TRACE;

GRAYLING       CLOUDY    70  63  76 W5        29.88R
6HR MIN TEMP:  64; 6HR MAX TEMP:  74;

HARBOR SPRINGS CLOUDY    66  63  89 W7        29.86R
HOUGHTON LAKE  CLOUDY    72  62  71 W7        29.88R
6HR MIN TEMP:  66; 6HR MAX TEMP:  73;

MANISTEE       CLOUDY    66  59  77 NW8       29.90R
OSCODA         CLOUDY    70  66  88 SE8       29.83S FOG
PELLSTON       CLOUDY    67  63  87 SW7       29.86R
6HR MIN TEMP:  61; 6HR MAX TEMP:  67;

ROGERS CITY    LGT RAIN  66  66 100 N6        29.86R
TRAVERSE CITY  CLOUDY    70  61  73 NW6       29.86R
6HR MIN TEMP:  66; 6HR MAX TEMP:  71;

$$
MIZ007>008-015-201900-
EASTERN UPPER MICHIGAN

CITY           SKY/WX    TMP DP  RH WIND       PRES   REMARKS
KINROSS        CLOUDY    64  64 100 NE5       29.85S
6HR MIN TEMP:  61; 6HR MAX TEMP:  66; 6HR PCP:  0.02;

MACKINAC ISLAN CLOUDY    63  63 100 CALM      29.85S FOG
6HR MIN TEMP:  59; 6HR MAX TEMP:  63;

NEWBERRY       CLOUDY    62  61  97 NW5       29.86S
S. S. MARIE    CLOUDY    66  63  90 VRB3      29.85R
6HR MIN TEMP:  61; 6HR MAX TEMP:  66;

MUNISING         N/A     62  59  90 NW8       29.88R
6HR MIN TEMP:  60; 6HR MAX TEMP:  62;

$$
MIZ004>006-011>014-085-201900-
CENTRAL UPPER MICHIGAN

CITY           SKY/WX    TMP DP  RH WIND       PRES   REMARKS
MANISTIQUE     CLOUDY    63  62  97 NW7       29.86S
ESCANABA       CLOUDY    64  59  82 CALM      29.87S
6HR MIN TEMP:  61; 6HR MAX TEMP:  64;

MENOMINEE      CLOUDY    68  61  77 S7        29.88R
6HR MIN TEMP:  63; 6HR MAX TEMP:  70;

SAWYER-GWINN   DRIZZLE   63  59  88 CALM      29.89R
$$
MIZ001>003-009>011-084-201900-
WESTERN UPPER MICHIGAN

CITY           SKY/WX    TMP DP  RH WIND       PRES   REMARKS
IRON MOUNTAIN  CLOUDY    67  59  75 N8        29.89R
6HR MIN TEMP:  58; 6HR MAX TEMP:  68;

HOUGHTON       CLOUDY    61  58  90 NW10      29.89S
6HR MIN TEMP:  57; 6HR MAX TEMP:  61; 6HR PCP: TRACE;

COPPER HARBOR    N/A     53  52  96 N6        29.88R
6HR MIN TEMP:  52; 6HR MAX TEMP:  55; 6HR PCP:  0.01;

IRONWOOD       CLOUDY    64  61  88 NW5       29.90R
6HR MIN TEMP:  57; 6HR MAX TEMP:  66;

$$

ABBREVIATIONS USED IN REMARKS
   TC - TEMPERATURE IN CELSIUS
  WCI - WIND CHILL INDEX
   HX - HEAT INDEX
  VSB - VISIBILITY



USA.gov is the U.S. government's official web portal to all federal, state and local government web resources and services.